EA5AFP-10 Weather Reports


Display with metric or nautical units.
time (UTC)temp
F
wind
direction
speed
MPH
gust
MPH
rain 1hr
in
rain 24hr
in
rain mn
in
humidity
%
barometer
mb
20260508031012 53 292 1.0 2.0 0.00 0.00 0.00 9 1008.0
20260508030558 52 292 1.0 1.0 0.00 0.00 0.00 9 1008.3
20260508030525 52 292 1.0 1.0 0.00 0.00 0.00 9 1008.3
20260508030109 52 292 2.0 2.0 0.00 0.00 0.00 9 1008.2
20260508025657 53 292 2.0 3.0 0.00 0.00 0.00 9 1008.2
20260508025517 53 292 2.0 3.0 0.00 0.00 0.00 9 1008.2
20260508025409 53 292 2.0 3.0 0.00 0.00 0.00 9 1008.2
20260508025045 53 270 3.0 4.0 0.00 0.00 0.00 9 1008.4
20260508024530 53 270 3.0 3.0 0.00 0.00 0.00 9 1008.2
20260508024046 53 270 2.0 3.0 0.00 0.00 0.00 9 1008.5
20260508023629 53 270 2.0 2.0 0.00 0.00 0.00 9 1008.4
20260508023204 53 247 0.0 2.0 0.00 0.00 0.00 9 1008.5
20260508022710 53 292 0.0 1.0 0.00 0.00 0.00 9 1008.6
20260508022441 53 292 0.0 1.0 0.00 0.00 0.00 9 1008.4
20260508022250 53 292 1.0 2.0 0.00 0.00 0.00 9 1008.6
20260508022011 53 292 2.0 2.0 0.00 0.00 0.00 9 1008.5
20260508021520 53 292 1.0 2.0 0.00 0.00 0.00 9 1008.5
20260508021353 53 292 2.0 2.0 0.00 0.00 0.00 9 1008.6
20260508021101 53 292 2.0 2.0 0.00 0.00 0.00 9 1008.5
20260508020601 53 292 1.0 2.0 0.00 0.00 0.00 9 1008.5
20260508020528 53 292 1.0 2.0 0.00 0.00 0.00 9 1008.5
20260508020111 53 292 1.0 2.0 0.00 0.00 0.00 9 1008.6
20260508015704 53 292 2.0 2.0 0.00 0.00 0.00 9 1008.6
20260508015701 53 292 2.0 2.0 0.00 0.00 0.00 9 1008.6
20260508015526 53 292 2.0 2.0 0.00 0.00 0.00 9 1008.6
20260508015122 53 292 2.0 3.0 0.00 0.00 0.00 9 1008.5
20260508014627 53 270 2.0 3.0 0.00 0.00 0.00 9 1008.5
20260508014138 54 270 3.0 4.0 0.00 0.00 0.00 9 1008.6
20260508013711 54 292 3.0 3.0 0.00 0.00 0.00 9 1008.6
20260508013218 54 292 2.0 2.0 0.00 0.00 0.00 9 1008.8
20260508012728 54 337 1.0 2.0 0.00 0.00 0.00 9 1008.8
20260508012723 54 337 1.0 2.0 0.00 0.00 0.00 9 1008.8
20260508012403 54 315 1.0 2.0 0.00 0.00 0.00 9 1008.8
20260508012213 54 315 1.0 2.0 0.00 0.00 0.00 9 1008.9
20260508011908 54 292 1.0 2.0 0.00 0.00 0.00 9 1008.8
20260508011434 54 292 2.0 3.0 0.00 0.00 0.00 9 1009.0
20260508011351 54 292 3.0 3.0 0.00 0.00 0.00 9 1009.1
20260508011031 54 315 1.0 2.0 0.00 0.00 0.00 9 1009.1
20260508010600 54 315 3.0 3.0 0.00 0.00 0.00 9 1009.2
20260508010524 54 315 3.0 3.0 0.00 0.00 0.00 9 1009.2
20260508010108 54 315 2.0 2.0 0.00 0.00 0.00 9 1009.0
20260508005656 54 315 2.0 3.0 0.00 0.00 0.00 9 1009.3
20260508005652 54 315 2.0 3.0 0.00 0.00 0.00 9 1009.3
20260508005538 54 315 2.0 3.0 0.00 0.00 0.00 9 1009.3
20260508005415 54 337 3.0 3.0 0.00 0.00 0.00 9 1009.2
20260508005002 54 337 1.0 2.0 0.00 0.00 0.00 9 1009.3
20260508004620 54 292 2.0 3.0 0.00 0.00 0.00 9 1009.3
20260508004602 54 292 3.0 4.0 0.00 0.00 0.00 9 1009.2
20260508004122 54 292 3.0 3.0 0.00 0.00 0.00 9 1009.3
20260508003632 54 292 2.0 2.0 0.00 0.00 0.00 9 1009.3
20260508003156 54 247 2.0 3.0 0.00 0.00 0.00 9 1009.3
20260508002725 55 315 3.0 4.0 0.00 0.00 0.00 9 1009.3
20260508002722 55 315 3.0 4.0 0.00 0.00 0.00 9 1009.3
20260508002449 55 270 3.0 3.0 0.00 0.00 0.00 9 1009.4
20260508002307 55 270 3.0 3.0 0.00 0.00 0.00 9 1009.2
20260508002014 55 270 2.0 2.0 0.00 0.00 0.00 9 1009.2
20260508001529 55 270 3.0 3.0 0.00 0.00 0.00 9 1009.5
20260508001107 55 270 2.0 3.0 0.00 0.00 0.00 9 1009.2
20260508000618 55 292 1.0 2.0 0.00 0.00 0.00 9 1009.3
20260508000150 55 315 1.0 2.0 0.00 0.00 0.00 9 1009.6
20260507235659 55 292 1.0 2.0 0.00 0.00 0.00 9 1009.5
20260507235521 55 292 1.0 2.0 0.00 0.00 0.00 9 1009.5
20260507235428 55 315 2.0 2.0 0.00 0.00 0.00 9 1009.7
20260507234932 55 292 1.0 2.0 0.00 0.00 0.00 9 1009.6
20260507234556 55 292 1.0 2.0 0.00 0.00 0.00 9 1009.7
20260507234451 55 292 1.0 2.0 0.00 0.00 0.00 9 1009.6
20260507234024 55 292 1.0 2.0 0.00 0.00 0.00 9 1009.7
20260507233658 55 292 3.0 3.0 0.00 0.00 0.00 9 1009.7
20260507233612 55 292 3.0 3.0 0.00 0.00 0.00 9 1009.7
20260507233205 55 292 2.0 3.0 0.00 0.00 0.00 9 1009.7
20260507232716 55 270 3.0 3.0 0.00 0.00 0.00 9 1009.8
20260507232713 55 270 3.0 3.0 0.00 0.00 0.00 9 1009.8
20260507232521 55 292 2.0 3.0 0.00 0.00 0.00 9 1010.0
20260507232411 55 292 2.0 3.0 0.00 0.00 0.00 9 1009.9
20260507232007 55 315 2.0 3.0 0.00 0.00 0.00 9 1009.9
20260507231600 55 0 0.0 0.0 0.00 0.00 0.00 9 1009.8
20260507231124 55 0 0.0 0.0 0.00 0.00 0.00 9 1009.8
20260507230637 55 0 0.0 2.0 0.00 0.00 0.00 9 1010.1
20260507230208 55 270 3.0 4.0 0.00 0.00 0.00 9 1009.8
20260507225725 55 292 3.0 3.0 0.00 0.00 0.00 9 1009.8
20260507225722 55 292 3.0 3.0 0.00 0.00 0.00 9 1009.8
20260507225447 55 292 2.0 2.0 0.00 0.00 0.00 9 1009.9
20260507225337 55 270 1.0 2.0 0.00 0.00 0.00 9 1010.0
20260507224921 55 0 0.0 0.0 0.00 0.00 0.00 9 1009.9
20260507224530 55 270 2.0 2.0 0.00 0.00 0.00 9 1009.9
20260507224509 55 270 1.0 2.0 0.00 0.00 0.00 9 1009.8
20260507224057 55 292 1.0 2.0 0.00 0.00 0.00 9 1009.9
20260507223540 55 270 3.0 4.0 0.00 0.00 0.00 9 1009.8
20260507223135 55 292 1.0 2.0 0.00 0.00 0.00 9 1009.7
20260507222735 55 247 0.0 1.0 0.00 0.00 0.00 9 1009.7
20260507222731 55 247 0.0 1.0 0.00 0.00 0.00 9 1009.7
20260507222356 55 270 3.0 4.0 0.00 0.00 0.00 9 1009.6
20260507221952 55 270 5.0 6.0 0.00 0.00 0.00 9 1009.5
20260507221548 55 292 3.0 3.0 0.00 0.00 0.00 9 1009.6
20260507221109 55 292 4.0 6.0 0.00 0.00 0.00 9 1009.6
20260507220622 55 292 3.0 4.0 0.00 0.00 0.00 9 1009.6
20260507220153 55 270 5.0 6.0 0.00 0.00 0.00 9 1009.6
20260507215702 55 292 2.0 3.0 0.00 0.00 0.00 9 1009.6
20260507215510 55 292 2.0 3.0 0.00 0.00 0.00 9 1009.6
20260507215046 55 315 4.0 6.0 0.00 0.00 0.00 9 1009.6
20260507214738 55 292 4.0 6.0 0.00 0.00 0.00 9 1009.6
20260507214611 55 315 3.0 4.0 0.00 0.00 0.00 9 1009.4
20260507214557 55 292 4.0 6.0 0.00 0.00 0.00 9 1009.6
20260507214126 55 315 3.0 6.0 0.00 0.00 0.00 9 1009.5
20260507213700 55 315 3.0 4.0 0.00 0.00 0.00 9 1009.4
20260507213636 55 292 1.0 2.0 0.00 0.00 0.00 9 1009.3
20260507213207 55 292 1.0 2.0 0.00 0.00 0.00 9 1009.5
20260507212717 56 247 0.0 2.0 0.00 0.00 0.00 9 1009.2
20260507212506 55 0 0.0 0.0 0.00 0.00 0.00 9 1009.2
20260507212423 55 0 0.0 0.0 0.00 0.00 0.00 9 1009.2
20260507211946 55 0 0.0 0.0 0.00 0.00 0.00 9 1009.1
20260507211544 55 315 0.0 2.0 0.00 0.00 0.00 9 1009.1
20260507211457 55 315 1.0 2.0 0.00 0.00 0.00 9 1009.1
20260507211027 55 292 1.0 2.0 0.00 0.00 0.00 9 1009.1
20260507210622 55 315 3.0 3.0 0.00 0.00 0.00 9 1009.1
20260507210152 55 0 0.0 0.0 0.00 0.00 0.00 9 1009.1
20260507205706 55 90 1.0 1.0 0.00 0.00 0.00 9 1009.0
20260507205703 55 90 1.0 1.0 0.00 0.00 0.00 9 1009.0
20260507205529 55 90 1.0 1.0 0.00 0.00 0.00 9 1009.0
20260507205505 55 90 1.0 2.0 0.00 0.00 0.00 9 1009.0
20260507205109 56 0 0.0 0.0 0.00 0.00 0.00 9 1009.0
20260507204624 56 337 1.0 1.0 0.00 0.00 0.00 9 1009.0
20260507204521 56 337 1.0 1.0 0.00 0.00 0.00 9 1008.9
20260507204129 56 337 1.0 1.0 0.00 0.00 0.00 9 1008.9
20260507203701 56 0 0.0 1.0 0.00 0.00 0.00 9 1008.9
20260507203209 56 0 0.0 0.0 0.00 0.00 0.00 9 1008.9
20260507202717 56 0 0.0 0.0 0.00 0.00 0.00 9 1009.0
20260507202714 56 0 0.0 0.0 0.00 0.00 0.00 9 1009.0
20260507202407 56 0 0.0 0.0 0.00 0.00 0.00 9 1009.1
20260507202306 56 0 0.0 0.0 0.00 0.00 0.00 9 1009.1
20260507201912 56 0 0.0 0.0 0.00 0.00 0.00 9 1009.0
20260507201439 56 0 0.0 0.0 0.00 0.00 0.00 9 1009.0
20260507201037 56 67 2.0 3.0 0.00 0.00 0.00 9 1009.1
20260507200550 56 270 0.0 1.0 0.00 0.00 0.00 9 1009.1
20260507200121 56 0 0.0 1.0 0.00 0.00 0.00 9 1009.0
20260507195657 56 270 0.0 2.0 0.00 0.00 0.00 9 1009.1
20260507195431 56 270 0.0 2.0 0.00 0.00 0.00 9 1009.1
20260507194936 57 0 0.0 0.0 0.00 0.00 0.00 9 1009.1
20260507194459 56 0 0.0 1.0 0.00 0.00 0.00 9 1009.0
20260507194026 57 0 0.0 0.0 0.00 0.00 0.00 9 1009.0
20260507193606 56 270 2.0 3.0 0.00 0.00 0.00 9 1008.9
20260507193135 56 292 2.0 3.0 0.00 0.00 0.00 9 1009.1
20260507192728 56 292 5.0 6.0 0.00 0.00 0.00 9 1009.0
20260507192725 56 292 5.0 6.0 0.00 0.00 0.00 9 1009.0
20260507192601 56 292 2.0 3.0 0.00 0.00 0.00 9 1008.9
20260507192358 56 292 4.0 6.0 0.00 0.00 0.00 9 1009.1
20260507191946 57 292 6.0 9.0 0.00 0.00 0.00 9 1008.9
20260507191545 57 292 4.0 6.0 0.00 0.00 0.00 9 1008.9
20260507191105 57 292 6.0 8.0 0.00 0.00 0.00 9 1008.9
20260507190618 57 270 6.0 9.0 0.00 0.00 0.00 9 1009.1
20260507190149 57 270 6.0 6.0 0.00 0.00 0.00 9 1009.0
20260507185701 57 270 13.0 20.0 0.00 0.00 0.00 9 1008.7
20260507185658 57 270 13.0 20.0 0.00 0.00 0.00 9 1008.7
20260507185428 57 270 11.0 15.0 0.00 0.00 0.00 9 1008.6
20260507185306 58 292 9.0 13.0 0.00 0.00 0.00 9 1008.5
20260507185021 58 292 10.0 13.0 0.00 0.00 0.00 9 1008.5
20260507184542 58 292 6.0 8.0 0.00 0.00 0.00 9 1008.3
20260507184410 58 292 6.0 8.0 0.00 0.00 0.00 9 1008.2
20260507184104 58 292 3.0 6.0 0.00 0.00 0.00 9 1008.3
20260507183614 58 270 0.0 2.0 0.00 0.00 0.00 9 1008.2
20260507183543 58 67 1.0 2.0 0.00 0.00 0.00 9 1008.1
20260507183127 58 180 2.0 4.0 0.00 0.00 0.00 9 1008.2
20260507182715 58 67 0.0 2.0 0.00 0.00 0.00 9 1008.1
20260507182712 58 67 0.0 2.0 0.00 0.00 0.00 9 1008.1
20260507182350 58 45 2.0 3.0 0.00 0.00 0.00 9 1008.0
20260507181858 58 315 3.0 6.0 0.00 0.00 0.00 9 1007.8
20260507181358 58 292 5.0 6.0 0.00 0.00 0.00 8 1007.6
20260507180946 58 270 5.0 6.0 0.00 0.00 0.00 8 1007.6
20260507180521 59 270 12.0 13.0 0.00 0.00 0.00 8 1007.7
20260507180108 59 315 2.0 3.0 0.00 0.00 0.00 8 1007.9
20260507175658 59 315 5.0 6.0 0.00 0.00 0.00 7 1007.6
20260507175413 58 315 6.0 9.0 0.00 0.00 0.00 8 1007.6
20260507175243 61 337 5.0 6.0 0.00 0.00 0.00 8 1007.6
20260507174921 61 337 5.0 6.0 0.00 0.00 0.00 8 1008.0
20260507174419 62 292 4.0 6.0 0.00 0.00 0.00 8 1007.5
20260507174010 62 292 4.0 6.0 0.00 0.00 0.00 7 1007.3
20260507173602 63 315 7.0 10.0 0.00 0.00 0.00 8 1007.5
20260507173545 65 337 3.0 4.0 0.00 0.00 0.00 8 1007.4
20260507173131 65 0 1.0 2.0 0.00 0.00 0.00 7 1007.4
20260507172725 65 0 0.0 0.0 0.00 0.00 0.00 7 1007.3
20260507172721 65 0 0.0 0.0 0.00 0.00 0.00 7 1007.3
20260507172556 65 0 0.0 0.0 0.00 0.00 0.00 7 1007.3
20260507172350 66 0 0.0 1.0 0.00 0.00 0.00 7 1007.3
20260507171945 66 90 1.0 3.0 0.00 0.00 0.00 7 1007.3
20260507171541 65 90 0.0 1.0 0.00 0.00 0.00 7 1007.3
20260507171102 66 90 1.0 3.0 0.00 0.00 0.00 7 1007.4
20260507170643 66 90 2.0 3.0 0.00 0.00 0.00 7 1007.2
20260507170614 66 67 0.0 2.0 0.00 0.00 0.00 7 1007.3
20260507170146 66 67 0.0 1.0 0.00 0.00 0.00 7 1007.2
20260507165658 66 67 0.0 1.0 0.00 0.00 0.00 7 1007.2
20260507165656 66 67 0.0 1.0 0.00 0.00 0.00 7 1007.2
20260507165441 66 0 0.0 1.0 0.00 0.00 0.00 7 1007.2
20260507165335 66 157 0.0 2.0 0.00 0.00 0.00 7 1007.2
20260507165016 66 22 1.0 2.0 0.00 0.00 0.00 7 1007.2
20260507164527 66 90 1.0 3.0 0.00 0.00 0.00 7 1007.3
20260507164500 66 112 0.0 2.0 0.00 0.00 0.00 7 1007.2
20260507164054 66 90 0.0 2.0 0.00 0.00 0.00 7 1007.3
20260507163601 66 112 5.0 6.0 0.00 0.00 0.00 7 1007.2
20260507163545 66 135 4.0 6.0 0.00 0.00 0.00 7 1007.1
20260507163132 66 0 0.0 0.0 0.00 0.00 0.00 7 1007.2
20260507162722 66 112 3.0 4.0 0.00 0.00 0.00 7 1007.1
20260507162440 66 90 0.0 2.0 0.00 0.00 0.00 7 1007.1
20260507161946 65 90 0.0 2.0 0.00 0.00 0.00 7 1007.2
20260507161543 66 112 3.0 4.0 0.00 0.00 0.00 7 1007.1
20260507161103 66 112 3.0 6.0 0.00 0.00 0.00 7 1006.9
20260507160617 66 135 5.0 6.0 0.00 0.00 0.00 7 1007.0
20260507160147 66 135 5.0 6.0 0.00 0.00 0.00 7 1006.8
20260507155657 66 0 0.0 1.0 0.00 0.00 0.00 7 1006.8
20260507155455 66 90 3.0 3.0 0.00 0.00 0.00 7 1006.9
20260507155000 66 90 3.0 4.0 0.00 0.00 0.00 7 1006.7
20260507154714 66 90 5.0 8.0 0.00 0.00 0.00 7 1006.9
20260507154541 66 112 6.0 9.0 0.00 0.00 0.00 7 1006.8
20260507154057 66 90 3.0 6.0 0.00 0.00 0.00 7 1006.7
20260507153640 66 112 5.0 6.0 0.00 0.00 0.00 7 1006.6
20260507153215 66 112 3.0 6.0 0.00 0.00 0.00 7 1006.5
20260507152720 66 45 6.0 8.0 0.00 0.00 0.00 7 1006.7
20260507152441 66 112 5.0 8.0 0.00 0.00 0.00 7 1006.5
20260507152011 66 90 6.0 11.0 0.00 0.00 0.00 7 1006.5
20260507151519 66 112 6.0 10.0 0.00 0.00 0.00 7 1006.6
20260507151101 66 45 3.0 4.0 0.00 0.00 0.00 7 1006.6
20260507150601 66 90 4.0 8.0 0.00 0.00 0.00 7 1006.6
20260507150528 66 90 4.0 8.0 0.00 0.00 0.00 7 1006.6
20260507150111 66 90 6.0 10.0 0.00 0.00 0.00 7 1006.7
20260507145703 66 67 6.0 8.0 0.00 0.00 0.00 7 1006.7
20260507145700 66 67 6.0 8.0 0.00 0.00 0.00 7 1006.7
20260507145506 66 90 6.0 12.0 0.00 0.00 0.00 7 1006.6
20260507145032 66 90 9.0 12.0 0.00 0.00 0.00 7 1006.8
20260507144611 66 90 6.0 10.0 0.00 0.00 0.00 7 1006.9
20260507144128 66 90 6.0 8.0 0.00 0.00 0.00 7 1007.0
20260507143709 66 112 9.0 13.0 0.00 0.00 0.00 7 1006.9
20260507143640 66 112 6.0 11.0 0.00 0.00 0.00 7 1006.9
20260507143212 66 135 6.0 10.0 0.00 0.00 0.00 7 1006.9
20260507142721 66 112 7.0 11.0 0.00 0.00 0.00 7 1006.9
20260507142430 66 90 8.0 11.0 0.00 0.00 0.00 7 1006.9
20260507142005 66 90 9.0 12.0 0.00 0.00 0.00 7 1006.9
20260507141520 66 45 6.0 9.0 0.00 0.00 0.00 7 1006.9
20260507141100 66 67 8.0 11.0 0.00 0.00 0.00 7 1006.8
20260507140600 66 112 6.0 10.0 0.00 0.00 0.00 7 1007.1
20260507140529 66 112 6.0 10.0 0.00 0.00 0.00 7 1007.1
20260507140110 66 90 8.0 12.0 0.00 0.00 0.00 7 1007.1
20260507135703 66 67 11.0 15.0 0.00 0.00 0.00 7 1007.1
20260507135659 66 67 11.0 15.0 0.00 0.00 0.00 7 1007.1
20260507135514 66 67 11.0 15.0 0.00 0.00 0.00 7 1007.1
20260507135311 67 67 9.0 13.0 0.00 0.00 0.00 7 1007.0
20260507134821 68 67 9.0 18.0 0.00 0.00 0.00 7 1007.0
20260507134553 66 157 9.0 13.0 0.00 0.00 0.00 7 1006.9
20260507134407 66 90 10.0 15.0 0.00 0.00 0.00 7 1007.0
20260507134001 67 90 9.0 15.0 0.00 0.00 0.00 7 1007.3
20260507133555 67 67 10.0 15.0 0.00 0.00 0.00 7 1007.0
20260507133135 67 112 10.0 13.0 0.00 0.00 0.00 7 1007.0
20260507132726 67 90 8.0 13.0 0.00 0.00 0.00 7 1007.1
20260507132723 67 90 8.0 13.0 0.00 0.00 0.00 7 1007.1
20260507132432 67 135 9.0 13.0 0.00 0.00 0.00 7 1007.0
20260507132250 67 90 12.0 15.0 0.00 0.00 0.00 7 1007.0
20260507132007 68 112 7.0 12.0 0.00 0.00 0.00 7 1007.1
20260507131527 69 135 10.0 15.0 0.00 0.00 0.00 7 1007.2
20260507131049 69 90 8.0 13.0 0.00 0.00 0.00 7 1007.1
20260507130600 69 112 10.0 15.0 0.00 0.00 0.00 7 1007.4
20260507130529 69 112 10.0 15.0 0.00 0.00 0.00 7 1007.4
20260507130112 69 135 9.0 11.0 0.00 0.00 0.00 7 1007.2
20260507125700 68 112 11.0 15.0 0.00 0.00 0.00 7 1007.2
20260507125313 68 112 7.0 10.0 0.00 0.00 0.00 7 1007.3
20260507124845 67 90 6.0 10.0 0.00 0.00 0.00 7 1007.4
20260507124423 68 112 10.0 13.0 0.00 0.00 0.00 7 1007.3
20260507124022 67 90 7.0 10.0 0.00 0.00 0.00 7 1007.4
20260507123535 67 112 11.0 13.0 0.00 0.00 0.00 7 1007.5
20260507123123 67 112 6.0 11.0 0.00 0.00 0.00 7 1007.7
20260507122716 67 157 6.0 10.0 0.00 0.00 0.00 7 1007.6
20260507122713 67 157 6.0 10.0 0.00 0.00 0.00 7 1007.6
20260507122558 67 157 6.0 10.0 0.00 0.00 0.00 7 1007.6
20260507122419 66 135 7.0 11.0 0.00 0.00 0.00 7 1007.6
20260507121942 66 67 6.0 9.0 0.00 0.00 0.00 7 1007.6
20260507121512 66 67 7.0 9.0 0.00 0.00 0.00 7 1007.5
20260507121046 66 90 7.0 10.0 0.00 0.00 0.00 7 1007.6
20260507120627 67 90 9.0 12.0 0.00 0.00 0.00 7 1007.6
20260507120151 67 112 8.0 11.0 0.00 0.00 0.00 7 1007.8
20260507115747 68 90 9.0 15.0 0.00 0.00 0.00 7 1007.6
20260507115701 68 90 9.0 15.0 0.00 0.00 0.00 7 1007.6
20260507115657 68 90 9.0 15.0 0.00 0.00 0.00 7 1007.6
20260507115452 68 112 9.0 11.0 0.00 0.00 0.00 7 1007.6
20260507115307 68 90 9.0 15.0 0.00 0.00 0.00 7 1007.7
20260507115008 68 67 6.0 10.0 0.00 0.00 0.00 7 1007.7
20260507114518 68 112 6.0 9.0 0.00 0.00 0.00 7 1007.9
20260507114408 67 90 6.0 12.0 0.00 0.00 0.00 7 1007.9
20260507114045 67 135 9.0 13.0 0.00 0.00 0.00 7 1008.0
20260507113552 67 112 6.0 9.0 0.00 0.00 0.00 7 1008.0
20260507113126 68 112 4.0 8.0 0.00 0.00 0.00 7 1008.1
20260507112717 67 67 4.0 6.0 0.00 0.00 0.00 7 1008.2
20260507112713 67 67 4.0 6.0 0.00 0.00 0.00 7 1008.2
20260507112559 67 67 4.0 6.0 0.00 0.00 0.00 7 1008.2
20260507112354 68 90 6.0 10.0 0.00 0.00 0.00 7 1008.1
20260507111931 68 67 7.0 10.0 0.00 0.00 0.00 7 1008.2
20260507111604 68 112 5.0 8.0 0.00 0.00 0.00 7 1008.3
20260507111516 67 90 3.0 6.0 0.00 0.00 0.00 7 1008.2
20260507111031 68 90 1.0 4.0 0.00 0.00 0.00 7 1008.3
20260507110645 68 67 7.0 10.0 0.00 0.00 0.00 7 1008.3
20260507110614 67 112 6.0 8.0 0.00 0.00 0.00 7 1008.5
20260507110149 68 90 4.0 6.0 0.00 0.00 0.00 7 1008.4
20260507105700 67 90 8.0 11.0 0.00 0.00 0.00 6 1008.4
20260507105656 67 90 8.0 11.0 0.00 0.00 0.00 6 1008.4
20260507105447 67 67 6.0 9.0 0.00 0.00 0.00 6 1008.4
20260507105307 68 112 6.0 8.0 0.00 0.00 0.00 6 1008.3
20260507105022 68 90 6.0 8.0 0.00 0.00 0.00 6 1008.3
20260507104536 69 112 6.0 8.0 0.00 0.00 0.00 6 1008.3
20260507104408 69 90 6.0 8.0 0.00 0.00 0.00 6 1008.4
20260507104117 68 135 5.0 10.0 0.00 0.00 0.00 6 1008.3
20260507103617 68 135 5.0 8.0 0.00 0.00 0.00 7 1008.5
20260507103544 67 112 5.0 9.0 0.00 0.00 0.00 7 1008.3
20260507103126 67 67 4.0 6.0 0.00 0.00 0.00 7 1008.4
20260507102717 68 90 3.0 6.0 0.00 0.00 0.00 7 1008.2
20260507102300 67 90 3.0 4.0 0.00 0.00 0.00 7 1008.3
20260507101857 67 292 0.0 2.0 0.00 0.00 0.00 7 1008.3
20260507101449 66 337 0.0 2.0 0.00 0.00 0.00 7 1008.4
20260507101353 66 315 3.0 4.0 0.00 0.00 0.00 7 1008.5
20260507100957 66 112 3.0 4.0 0.00 0.00 0.00 7 1008.4
20260507100520 67 0 0.0 0.0 0.00 0.00 0.00 7 1008.7
20260507100107 66 0 0.0 0.0 0.00 0.00 0.00 7 1008.7
20260507095700 65 90 1.0 2.0 0.00 0.00 0.00 7 1008.7
20260507095657 65 90 1.0 2.0 0.00 0.00 0.00 7 1008.7
20260507095518 65 90 1.0 2.0 0.00 0.00 0.00 7 1008.7
20260507095404 65 90 2.0 3.0 0.00 0.00 0.00 7 1008.8
20260507095022 65 112 1.0 2.0 0.00 0.00 0.00 7 1008.7
20260507094534 66 90 1.0 3.0 0.00 0.00 0.00 7 1008.9
20260507094419 66 90 2.0 3.0 0.00 0.00 0.00 7 1008.9
20260507094116 65 67 1.0 2.0 0.00 0.00 0.00 7 1008.8
20260507093616 65 315 1.0 2.0 0.00 0.00 0.00 7 1008.8
20260507093542 65 292 2.0 3.0 0.00 0.00 0.00 7 1008.8
20260507093126 66 0 0.0 0.0 0.00 0.00 0.00 7 1008.8
20260507092716 66 0 0.0 0.0 0.00 0.00 0.00 7 1008.9
20260507092714 66 0 0.0 0.0 0.00 0.00 0.00 7 1008.9
20260507092346 66 0 0.0 0.0 0.00 0.00 0.00 7 1008.9
20260507091945 65 0 0.0 2.0 0.00 0.00 0.00 7 1009.1
20260507091544 64 0 0.0 1.0 0.00 0.00 0.00 7 1008.9
20260507091104 64 112 2.0 3.0 0.00 0.00 0.00 7 1009.0
20260507090643 63 67 2.0 2.0 0.00 0.00 0.00 7 1008.9
20260507090616 63 67 3.0 4.0 0.00 0.00 0.00 7 1008.9
20260507090150 63 90 3.0 6.0 0.00 0.00 0.00 7 1008.8
20260507085657 63 90 4.0 6.0 0.00 0.00 0.00 7 1008.7
20260507085455 64 90 3.0 4.0 0.00 0.00 0.00 7 1008.7
20260507085412 64 90 3.0 4.0 0.00 0.00 0.00 7 1008.7
20260507085010 64 67 3.0 4.0 0.00 0.00 0.00 7 1008.7
20260507084518 64 67 3.0 6.0 0.00 0.00 0.00 7 1008.7
20260507084416 64 45 3.0 4.0 0.00 0.00 0.00 7 1008.7
20260507084045 64 0 1.0 2.0 0.00 0.00 0.00 7 1008.8
20260507083544 64 0 0.0 0.0 0.00 0.00 0.00 7 1008.6
20260507083126 64 292 1.0 2.0 0.00 0.00 0.00 7 1008.7
20260507082716 64 270 1.0 2.0 0.00 0.00 0.00 7 1008.4
20260507082713 64 270 1.0 2.0 0.00 0.00 0.00 7 1008.4
20260507082346 63 292 2.0 3.0 0.00 0.00 0.00 7 1008.5
20260507081455 63 315 3.0 4.0 0.00 0.00 0.00 7 1008.7
20260507080525 63 315 3.0 4.0 0.00 0.00 0.00 7 1008.6
20260507080510 63 315 3.0 4.0 0.00 0.00 0.00 7 1008.6
20260507075702 62 315 3.0 6.0 0.00 0.00 0.00 7 1008.6
20260507075442 62 315 3.0 3.0 0.00 0.00 0.00 7 1008.7
20260507075326 62 337 3.0 6.0 0.00 0.00 0.00 7 1008.7
20260507075031 62 337 3.0 6.0 0.00 0.00 0.00 7 1008.7
20260507074547 62 337 3.0 4.0 0.00 0.00 0.00 7 1008.7
20260507074127 62 315 3.0 4.0 0.00 0.00 0.00 7 1008.8
20260507073627 62 315 4.0 6.0 0.00 0.00 0.00 7 1008.7
20260507073555 62 292 5.0 6.0 0.00 0.00 0.00 7 1008.8
20260507073137 62 315 5.0 6.0 0.00 0.00 0.00 7 1008.8
20260507072725 61 292 6.0 8.0 0.00 0.00 0.00 7 1008.9
20260507072448 62 315 6.0 8.0 0.00 0.00 0.00 7 1008.7
20260507072419 62 292 5.0 6.0 0.00 0.00 0.00 7 1008.7
20260507072006 62 315 6.0 6.0 0.00 0.00 0.00 7 1008.6
20260507071523 61 292 5.0 6.0 0.00 0.00 0.00 7 1008.6
20260507071103 61 292 3.0 4.0 0.00 0.00 0.00 8 1008.5
20260507070603 60 315 3.0 4.0 0.00 0.00 0.00 8 1008.6
20260507070113 60 315 3.0 4.0 0.00 0.00 0.00 8 1008.6
20260507065704 60 315 3.0 3.0 0.00 0.00 0.00 8 1008.6
20260507065700 60 315 3.0 3.0 0.00 0.00 0.00 8 1008.6
20260507065504 60 292 3.0 4.0 0.00 0.00 0.00 8 1008.5
20260507065405 60 315 4.0 6.0 0.00 0.00 0.00 8 1008.5
20260507065039 60 315 3.0 3.0 0.00 0.00 0.00 8 1008.6
20260507064549 60 315 3.0 4.0 0.00 0.00 0.00 8 1008.5
20260507064124 60 315 2.0 2.0 0.00 0.00 0.00 8 1008.4
20260507063634 60 315 2.0 3.0 0.00 0.00 0.00 8 1008.5
20260507063205 60 292 2.0 3.0 0.00 0.00 0.00 8 1008.5
20260507062715 60 292 2.0 3.0 0.00 0.00 0.00 8 1008.5
20260507062331 60 292 2.0 3.0 0.00 0.00 0.00 8 1008.5
20260507061927 60 292 2.0 2.0 0.00 0.00 0.00 8 1008.6
20260507061458 59 0 0.0 1.0 0.00 0.00 0.00 8 1008.4
20260507061018 59 0 0.0 1.0 0.00 0.00 0.00 8 1008.4
20260507060531 58 270 0.0 1.0 0.00 0.00 0.00 8 1008.3
20260507060113 58 270 1.0 2.0 0.00 0.00 0.00 9 1008.3
20260507055704 57 292 1.0 2.0 0.00 0.00 0.00 9 1008.2
20260507055701 57 292 1.0 2.0 0.00 0.00 0.00 9 1008.2
20260507055339 57 270 2.0 3.0 0.00 0.00 0.00 9 1008.1
20260507055004 57 270 3.0 3.0 0.00 0.00 0.00 9 1008.0
20260507054511 57 270 2.0 3.0 0.00 0.00 0.00 9 1008.1
20260507054502 57 292 2.0 3.0 0.00 0.00 0.00 9 1008.0
20260507054042 56 270 2.0 2.0 0.00 0.00 0.00 9 1008.0
20260507053524 56 270 2.0 2.0 0.00 0.00 0.00 9 1008.1
20260507053119 55 292 2.0 2.0 0.00 0.00 0.00 9 1007.9
20260507052721 55 270 2.0 2.0 0.00 0.00 0.00 9 1008.0
20260507052718 55 270 2.0 2.0 0.00 0.00 0.00 9 1008.0
20260507052353 55 0 0.0 0.0 0.00 0.00 0.00 9 1008.0
20260507052244 55 0 0.0 0.0 0.00 0.00 0.00 9 1008.0
20260507051929 55 0 0.0 0.0 0.00 0.00 0.00 9 1008.0
20260507051459 55 0 0.0 0.0 0.00 0.00 0.00 9 1008.0
20260507051405 55 0 0.0 0.0 0.00 0.00 0.00 9 1007.9
20260507051019 55 292 2.0 2.0 0.00 0.00 0.00 9 1007.9
20260507050602 54 270 2.0 2.0 0.00 0.00 0.00 9 1008.1
20260507050531 54 270 2.0 2.0 0.00 0.00 0.00 9 1008.1
20260507050113 54 0 0.0 0.0 0.00 0.00 0.00 9 1008.2
20260507045702 54 315 1.0 2.0 0.00 0.00 0.00 9 1008.0
20260507045659 54 315 1.0 2.0 0.00 0.00 0.00 9 1008.0
20260507045527 54 315 1.0 2.0 0.00 0.00 0.00 9 1008.0
20260507045409 54 292 2.0 3.0 0.00 0.00 0.00 9 1008.1
20260507044944 54 270 1.0 2.0 0.00 0.00 0.00 9 1008.1
20260507044627 54 247 2.0 2.0 0.00 0.00 0.00 9 1008.1
20260507044502 54 247 2.0 2.0 0.00 0.00 0.00 9 1008.0
20260507044036 54 270 2.0 2.0 0.00 0.00 0.00 9 1007.8
20260507043711 54 270 3.0 3.0 0.00 0.00 0.00 9 1007.8
20260507043624 54 292 3.0 4.0 0.00 0.00 0.00 9 1007.9
20260507043216 54 270 3.0 3.0 0.00 0.00 0.00 9 1007.9
20260507042728 53 292 2.0 2.0 0.00 0.00 0.00 9 1008.0
20260507042724 53 292 2.0 2.0 0.00 0.00 0.00 9 1008.0
20260507042013 53 292 1.0 1.0 0.00 0.00 0.00 9 1007.9
20260507040118 53 292 1.0 2.0 0.00 0.00 0.00 9 1007.7
20260507035433 54 292 0.0 1.0 0.00 0.00 0.00 9 1007.7
20260507035020 53 270 2.0 3.0 0.00 0.00 0.00 9 1007.7
20260507034541 53 247 1.0 2.0 0.00 0.00 0.00 9 1007.6
20260507034104 53 270 2.0 3.0 0.00 0.00 0.00 9 1007.6
20260507033615 54 270 1.0 2.0 0.00 0.00 0.00 9 1007.6
20260507033544 54 247 0.0 1.0 0.00 0.00 0.00 9 1007.6
20260507033127 54 247 1.0 2.0 0.00 0.00 0.00 9 1007.7
20260507032715 53 0 0.0 0.0 0.00 0.00 0.00 9 1007.8
20260507032450 53 0 0.0 0.0 0.00 0.00 0.00 9 1007.8
20260507031954 53 292 2.0 2.0 0.00 0.00 0.00 9 1008.0
20260507031733 53 270 2.0 2.0 0.00 0.00 0.00 9 1007.9
20260507031521 53 270 2.0 3.0 0.00 0.00 0.00 9 1008.0
20260507031119 53 0 0.0 0.0 0.00 0.00 0.00 9 1007.9